Погода Октябрьский Городок

Погода Октябрьский Городок : погода сейчас, прогноз погоды и архив. Всё, что Вы хотите узнать о погоде Октябрьский Городок!

Поиск расширенной информации на нашем сайте:

Другие новости

Новости СМИ2

Главная страница сайта

Новости сайта

03.07.2017

Напоминаем, что на нашем специализированном сайте Метеоцентр.Азия вы можете получить высокодетализированные автоматические прогнозы погоды по пунктам России, СНГ и мира в авиационном формате (включающие направление и скорость ветра, видимость, явления погоды, количество и форму облачности, нижнюю и верхнюю границу облачности).


Погода Октябрьский Городок - сегодня

Время (UTC), дата Ветер
(°,м/с) 
Видим.   Явления Облачность Т
(°С)
Тd
(°С)
f(%) Тe
(°С)
Pmin
(гПа)
dP
(гПа)
Po
(мм)
O2
(г/м3)
Тmin Tmax R s Состояние
почвы
12 20.05.18 210 (ЮЗ) 20000 м    9/6 600 м верхняя 
[Cu med, cong|Ci fib]
+24.1 +11.3 45 +27  1014.3  -0.3  743  273           
15 20.05.18 190 (Ю) 8-12{14}  20000 м    10/10 600 м кучево-дожд. 
[Cb calv]
+19.5 +14 71 +26  1015.4  0.7  744  277    +25.4       
21 20.05.18 360 (С) 20000 м    9/9 600 м 
[Sc]
+14.7 +14.4 98 +23  1016.8  0.6  745  282           
00 21.05.18 090 (В) 20000 м    8/0 средняя 
[Ac As]
+14.1 +14 99 +22  1017.6  0.9  745  283           
03 21.05.18 090 (В) 20000 м    10/0 средняя 
[Ac und]
+14.7 +14.1 96 +22  1018.8  1.1  746  282  +13.6    0.0    сухая 
09 21.05.18 060 (СВ) 5{10}  20000 м    10/8 600 м средняя 
[Sc|Ac und]
+17.9 +14.2 79 +25  1020.5  1.3  748  280           
15 21.05.18 070 (В) 6-11{12}  20000 м    8/0 средняя 
[Ac trans]
+18.4 +13.6 74 +24  1020.7  -0.2  748  280    +21.1       
03 22.05.18 090 (В) 7-12{15}  20000 м    5/0 средняя, верхняя 
[Ac trans|Cs]
+13.1 +7.8 70 +12  1026.1  2.1  751  288  +12.2        сухая 
15 22.05.18 090 (В) 5{12}  20000 м    5/0 средняя, верхняя 
[Ac trans|Ci fib]
+23.4 +3 26 +23  1026.1  -0.4  752  279    +24.9       
18 22.05.18 080 (В) 4{11}  20000 м    3/0 средняя, верхняя 
[Ac trans|Ci fib]
+16.5 +3.9 43 +17  1027.1  0.4  752  285           
21 22.05.18 090 (В) 20000 м    8/0 верхняя 
[Cs]
+14.8 +4.7 51 +15  1026.8  -0.4  752  287           
00 23.05.18 090 (В) 20000 м    10/0 средняя, верхняя 
[Ac trans|Cs]
+12.9 +4.5 57 +13  1027.7  0.7  752  289           
03 23.05.18 080 (В) 20000 м    10/0 средняя, верхняя 
[Ac As|Cs]
+15.5 +3.9 46 +16  1027.7  0.2  753  286  +12.5        сухая 
06 23.05.18 080 (В) 20000 м    8/0 средняя 
[Ac As]
+17.6 +6 46 +18  1027.7  0.2  753  284           
09 23.05.18 090 (В) 20000 м    8/0 верхняя 
[Cc]
+23.5 +8 37 +24  1025.8  -1.4  752  278           
12 23.05.18 130 (ЮВ) 20000 м    10/0 средняя, верхняя 
[Ac trans|Ci fib]
+28.1 +5.6 24 +28  1024  -1.4  751  273           
18 23.05.18 080 (В) 20000 м    10/0 средняя, верхняя 
[Ac As|Cs]
+19.9 +7.7 45 +21  1021.9  -0.9  749  280           
21 23.05.18 080 (В) 20000 м    8/0 средняя 
[Ac trans]
+20.2 +6.5 41 +20  1020.8  -1.1  748  280           
03 24.05.18 080 (В) 20000 м  {гроза}  9/0 средняя, верхняя 
[Ac As|Ci fib]
+17.3 +8.8 57 +17  1019.1  -1.2  746  281  +17.1        сухая 
06 24.05.18 090 (В) 20000 м  {гроза}  5/0 средняя, верхняя 
[Ac cast|Ci fib]
+23 +10 44 +24  1017.7  -0.9  746  275           
09 24.05.18 130 (ЮВ) 20000 м    5/0 верхняя 
[Ci fib]
+28.9 +6.9 25 +29  1015.5  -1.7  744  270           
12 24.05.18 120 (ЮВ) 20000 м    8/0 верхняя 
[Ci]
+30.3 +6.8 23 +30  1013.1  -2.2  743  268           
18 24.05.18 020 (С) 20000 м    6/0 средняя 
[Ac trans]
+23 +9.9 43 +24  1009.9  -0.8  740  273           
21 24.05.18 040 (СВ) 20000 м    10/0 средняя 
[Ac und]
+20.6 +10 51 +22  1009.8  -0.3  740  275           
03 25.05.18 070 (В) 7-12{14}  20000 м    8/0 средняя, верхняя 
[Ac trans|Cs]
+18.7 +11.2 62 +22  1010.6  -0.1  740  277  +18.1        сухая 
Время (UTC), дата Ветер
(°,м/с) 
Видим.   Явления Облачность Т
(°С)
Тd
(°С)
f(%) Тe
(°С)
Pmin
(гПа)
dP
(гПа)
Po
(мм)
O2
(г/м3)
Тmin Tmax R s Состояние
почвы

Для получения пояснительной информации подведите курсор к названию столбца.

ПОГОДА Октябрьский Городок - архив

Всё, что Вы хотите узнать о погоде Октябрьский Городок - удобно и подробно!

Выберите нужную дату (начиная с 1 января 2015* года) и нажмите кнопку "Найти".
Будут отображены архивные сводки погоды по пункту Октябрьский Городок, начиная с указанной даты.


Отображать данные в формате CSV (для использования в таблицах Excel)


Внимание! Наш архив погоды предназначен исключительно для личного некоммерческого использования в познавательных целях. Если Вам необходимы официальные справки о состоянии погоды (для производственных, юридических, коммерческих и т.п. целей), обращайтесь в органы Росгидромета.

*Примечание: данная дата относится к архиву по метеостанциям СССР (Россия, СНГ, Балтия).
Архив по метеостанциям Зарубежной Европы и Азии (кроме Китая) хранится 10 дней, по другим регионам земного шара (Китай, Африка, Америка, Австралия, Океания) - 1 день.

Октябрьский Городок - район местоположения метеостанции


Название, широта, долгота, высота метеостанции:
Октябрьский Городок 51.6°ш. 45.4°д. 201 м над ур. моря [Российская Федерация]

Дополнительная информация

В oтличие oт бoльшинства пoгoдных сайтoв мы публикуем пoдрoбную метеoинфoрмацию в детальнoм прoфессиoнальнoм фoрмате.

Характеристики температуры и влажнoсти вoздуха измеряются на высoте 2 м в тени вдали oт зданий и деревьев.
Скoрoсть ветра измеряется на высoте 10 м (на урoвне рoста челoвека скoрoсть ветра ниже в 1.5-2 раза). Если метеoстанция нахoдится в гoрoде или в лесу, тo скoрoсть ветра занижена на 2-4 м/с пo сравнению с oткрытым местoм. Скoрoсть ветра над акватoриями крупных рек и oзёр, а также на вершинах хoлмoв на 2-5 м/с выше, чем в oбычных услoвиях.
Атмoсфернoе давление в разных тoчках местнoсти мoжет значительнo oтличаться oт давления на метеoстанции, в зависимoсти oт услoвий рельефа (при пoдъёме на 10 м давление пoнижается примернo на 1 мм рт.ст.).